Terminal Aerodrome Forecast
Issued by NWS Austin/San Antonio, TX

Home | Current Version | Previous Version | Text Only | Print | Product List | Glossary On
Versions: 1 2 3 4 5 6 7 8 9 10 11 12 13 14 15 16 17 18 19
000
FTUS44 KEWX 011727
TAFSAT
TAF
KSAT 011727Z 0118/0224 09008KT P6SM SCT070 SCT250
     FM020400 VRB03KT P6SM FEW040
     FM021600 12007KT P6SM FEW070=

USA.gov is the U.S. government's official web portal to all federal, state and local government web resources and services.